Regional Weather Roundup
Issued by NWS

Home | Current Version | Previous Version | Graphics & Text | Print | Product List | Glossary On
Versions: 1 2 3 4 5 6 7 8 9 10 11 12 13 14 15 16 17 18 19 20 21 22 23 24 25 26 27 28 29 30 31 32 33 34 35 36 37 38 39 40 41 42 43 44 45 46 47 48 49 50
000
ASUS43 KTOP 210259
RWRKS

WEATHER ROUNDUP FOR KANSAS
NATIONAL WEATHER SERVICE GOODLAND KS
1000 PM CDT SUN MAY 20 2018

NOTE:  "FAIR" INDICATES FEW OR NO CLOUDS BELOW 12,000 FEET WITH NO
SIGNIFICANT WEATHER AND/OR OBSTRUCTIONS TO VISIBILITY.

KSZ001>006-013>018-027>032-041>047-210400-
NORTHWEST KANSAS

CITY           SKY/WX    TMP DP  RH WIND       PRES   REMARKS
GOODLAND       MOCLDY    52  49  89 E8        30.14S
HAYS           CLEAR     54  52  93 N6        30.13R
HILL CITY      CLOUDY    56  54  93 NE7       30.14R
RUSSELL        CLOUDY    58  58 100 N8        30.11R
$$

KSZ061>065-074>080-084>089-210400-
SOUTHWEST KANSAS

CITY           SKY/WX    TMP DP  RH WIND       PRES   REMARKS
DODGE CITY     CLEAR     58  50  75 NE9       30.11R
GARDEN CITY    CLOUDY    61  48  62 NE6       30.11S
GREAT BEND     PTCLDY    58  55  90 N8        30.11R
LIBERAL        CLEAR     63  49  60 E7        30.11R
$$

KSZ066>073-081>083-090>101-210400-
SOUTHEAST KANSAS

CITY           SKY/WX    TMP DP  RH WIND       PRES   REMARKS
CHANUTE        CLOUDY    65  63  93 NW8       30.04R
COFFEYVILLE    CLOUDY    65  62  90 N5        30.03R
HUTCHINSON     CLOUDY    63  57  81 N8        30.08R
MEDICINE LODGE   N/A     61  57  87 N6          N/A
NEWTON         CLOUDY    59  56  89 CALM      30.08R
PARSONS        CLOUDY    63  62  97 NW3       30.05R
WICHITA INTL   CLOUDY    62  58  86 E3        30.06R
WICHITA JABRA  CLOUDY    59  59 100 CALM      30.06R
WICHITA MCCONL CLOUDY    61  57  86 CALM      30.05R
WINFIELD       CLEAR     61  59  93 E5        30.07R
$$

KSZ007>012-019>026-033>040-048>060-102>105-210400-
NORTHEAST KANSAS

CITY           SKY/WX    TMP DP  RH WIND       PRES   REMARKS
CONCORDIA      CLOUDY    56  53  90 N8        30.10R
EMPORIA        CLOUDY    62  58  86 NW3       30.06R
LAWRENCE       FOG       63  62  97 CALM      30.04R VSB 1/2
MANHATTAN      CLOUDY    61  60  97 VRB6      30.07R FOG
OLATHE IND     PTCLDY    62  62 100 NW3       30.04R
OLATHE EXE     PTCLDY    64  63  96 N3        30.02S
SALINA         CLOUDY    62  58  86 N10       30.10R
TOPEKA BILLARD CLEAR     63  63 100 CALM      30.04R FOG
TOPEKA FORBES  CLEAR     63  61  93 W5        30.04R FOG
$$



USA.gov is the U.S. government's official web portal to all federal, state and local government web resources and services.